Regional Weather Roundup
Issued by NWS Glasgow, MT

Home | Current Version | Previous Version | Text Only | Print | Product List | Glossary On
Versions: 1 2 3 4 5 6 7 8 9 10 11 12 13 14 15 16 17 18 19 20 21 22 23 24 25 26 27 28 29 30 31 32 33 34 35 36 37 38 39 40 41 42 43 44 45 46 47 48 49 50
000
ASUS45 KGGW 231515
RWRGGW
HOURLY REGIONAL WEATHER ROUNDUP FOR NORTHEAST MONTANA
NATIONAL WEATHER SERVICE GLASGOW MONTANA
800 AM MST THU FEB 23 2017

NOTE: "FAIR" INDICATES FEW OR NO CLOUDS BELOW 12,000 FEET WITH NO
SIGNIFICANT WEATHER AND/OR OBSTRUCTIONS TO VISISBILITY.

NORTHEAST MONTANA


CITY           SKY/WX    TMP DP  RH WIND       PRES   REMARKS
GLASGOW        CLOUDY    27  26  96 N6        30.02S FOG
PLENTYWOOD       N/A     23  21  92 NE16        N/A
WOLF POINT     CLEAR     24  22  91 CALM      30.03S FOG
JORDAN           N/A     24  21  88 N7        29.99R
WINNETT          N/A     27  25  92 NE5         N/A
SIDNEY         PTSUNNY   25  23  92 N6        30.03R FOG
GLENDIVE       CLOUDY    26  25  96 NE6       30.01R FOG
MALTA            N/A     28  28 100 NE7         N/A
SCOBEY           N/A     23  15  71 N13       30.03R

FORT PECK REPORTS


CITY           SKY/WX    TMP DP  RH WIND       PRES   REMARKS
FORT PECK        N/A     27  27 100 NW3         N/A

SOUTHEAST MONTANA


CITY           SKY/WX    TMP DP  RH WIND       PRES   REMARKS
BILLINGS       CLOUDY    27  24  89 NE13      29.91R
MILES CITY     CLOUDY    29  25  85 NE9       29.97R
BAKER          CLOUDY    25  22  88 E9        29.96R
LIVINGSTON     LGT SNOW  26  22  84 E17       29.83R VSB 3/4

CENTRAL MONTANA


CITY           SKY/WX    TMP DP  RH WIND       PRES   REMARKS
HAVRE          FLURRIES  24  21  88 NE15      30.05R
LEWISTOWN      FLURRIES  22  19  89 E8        29.92R
GREAT FALLS    CLOUDY    25  22  88 NE9       29.96R
CUT BANK       CLOUDY    20  16  84 NE10      30.01R
HELENA         CLOUDY    29  23  78 N7        29.90R
BUTTE          LGT SNOW  24  16  71 N14       29.80R
BOZEMAN        CLOUDY    27  21  78 W3        29.83R

WESTERN MONTANA


CITY           SKY/WX    TMP DP  RH WIND       PRES   REMARKS
MISSOULA       CLOUDY    30  23  75 NW7       29.94R
KALISPELL      NOT AVBL

NORTH DAKOTA


CITY           SKY/WX    TMP DP  RH WIND       PRES   REMARKS
WILLISTON      CLOUDY    28  24  85 NE14      30.04R
DICKINSON      CLOUDY    26  24  92 N5        29.96R FOG
MINOT          CLOUDY    24  18  77 N18       30.05R
BISMARCK       CLOUDY    29  25  85 CALM      30.03R

SOUTHERN SASKATCHEWAN


CITY           SKY/WX    TMP DP  RH WIND       PRES   REMARKS
REGINA         PTCLDY    21  18  86 S6        30.09S
MOOSE JAW      PTCLDY    21  19  93 W5        30.11R
ESTEVAN        SNOW      21  19  93 N10       30.08S VSB 3/8
SWIFT CURRENT  MOCLDY    16  12  86 W3        30.07R




USA.gov is the U.S. government's official web portal to all federal, state and local government web resources and services.